Regional Weather Roundup
Issued by NWS

Home | Current Version | Previous Version | Text Only | Print | Product List | Glossary On
Versions: 1 2 3 4 5 6 7 8 9 10 11 12 13 14 15 16 17 18 19 20 21 22 23 24 25 26 27
000
ASUS45 KBOU 262207
RWRCO

WEATHER ROUNDUP FOR COLORADO
NATIONAL WEATHER SERVICE DENVER/BOULDER CO
400 PM MDT THU MAY 26 2016

NOTE: "FAIR" INDICATES FEW OR NO CLOUDS BELOW 12000 FEET WITH NO
SIGNIFICANT WEATHER AND/OR OBSTRUCTIONS TO VISIBILITY.

COZ001>005-013-030-031-262300-
...NORTHWEST COLORADO...

CITY           SKY/WX    TMP DP  RH WIND       PRES   REMARKS
CRAIG          FAIR      66  32  28 NW8       29.89F
HAYDEN         PTSUNNY   61  30  31 N10G18    29.90F
MEEKER         FAIR      59  33  37 W5        29.91F
MOUNT WERNER   NOT AVBL
STEAMBOAT SPGS FAIR      60  29  31 NW8G20    29.90F
WALDEN         CLOUDY    46  34  61 SE7       30.02F
$$

COZ006>008-011-262300-
...WEST CENTRAL VALLEYS...

CITY           SKY/WX    TMP DP  RH WIND       PRES   REMARKS
GRAND JUNCTION FAIR      69  27  20 SW22G30   29.83S
MONTROSE       FAIR      61  32  33 S10G21    29.93F
EAGLE          CLOUDY    59  28  31 SW10G21   29.93R
RIFLE          FAIR      72  29  20 N10       29.83F
DELTA          FAIR      68  28  21 S5        29.90F THUNDER
NUCLA          FAIR      57  30  35 SE12      29.98F
$$

COZ017>023-064>068-262300-
...SOUTHWEST COLORADO...

CITY           SKY/WX    TMP DP  RH WIND       PRES   REMARKS
DURANGO        FAIR      61  26  26 N18G25    29.91F
CORTEZ         CLOUDY    55  30  38 NE21G35   29.94R
PAGOSA SPRINGS CLOUDY    57  13  17 SW13G21   29.95S
TELLURIDE      CLOUDY    36  34  94 CALM      30.11F
WOLF CREEK PAS CLOUDY    30  25  80 NE10      30.13S WCI  21
$$

COZ009-010-012-014-032>034-037-058>063-262300-
...CENTRAL COLORADO...

CITY           SKY/WX    TMP DP  RH WIND       PRES   REMARKS
ASPEN          CLOUDY    48  32  53 S12       29.99F
BUENA VISTA    CLOUDY    53  24  31 NW5       29.94S
COPPER MTN     NOT AVBL
BERTHOUD PASS  CLOUDY    28  19  69 N10       30.13R THUNDER WCI  19
COTTONWOOD PAS TSTM      43  30  61 SE5       30.02F
GUNNISON       PTSUNNY   45  34  65 NE8       30.03F
KREMMLING      FAIR      55  27  33 CALM      29.95F
LEADVILLE      PTSUNNY   42  30  62 N10       30.01F
MONARCH PASS   CLOUDY    32  27  80 MISG      30.21F
SALIDA         CLOUDY    50  35  56 E9G18     30.00F
SUNLIGHT       CLOUDY    43  23  45 CALM      30.11F
WILKERSON PASS CLOUDY    34  27  75 NW12G18   30.10S THUNDER WCI  25
$$

COZ069>075-262300-
...SAN LUIS VALLEY/SANGRE DE CRISTO MOUNTAINS...

CITY           SKY/WX    TMP DP  RH WIND       PRES   REMARKS
ALAMOSA        PTSUNNY   53  34  48 NE15G24   29.92F
LA VETA PASS   CLOUDY    34  32  93 S3        30.03R
SAGUACHE       PTSUNNY   54  30  40 NW23G30   29.94S
$$

COZ035-036-038>040-262300-
...NORTHERN COLORADO FRONT RANGE...

CITY           SKY/WX    TMP DP  RH WIND       PRES   REMARKS
DENVER INTL AP TSTM      46  41  82 E9        29.91R
DMNS CITY PARK   N/A     50  44  78 NE8G16    29.90S
AURORA         LGT RAIN  47  44  91 E10       29.92F
FRONT RANGE AP TSTM      50  39  66 W10       29.93R
ERIE MUNI ARPT CLOUDY    53  42  68 NW5       29.92R THUNDER
BOULDER MUN AP PTSUNNY   54  43  66 N13       29.92R THUNDER
CENTENNIAL     CLOUDY    50  42  74 NE6       29.91S
BROOMFIELD     NOT AVBL
FORT COLLINS   PTSUNNY   50  43  76 N16       29.93F
LONGMONT       FAIR      56  47  74 NE9       29.95R
$$

COZ041-046-047-076>085-087-088-262300-
...PIKES PEAK/PALMER DIVIDE AND SOUTHERN FOOTHILLS...

CITY           SKY/WX    TMP DP  RH WIND       PRES   REMARKS
COLO. SPRINGS  TSTM      48  37  65 W8        29.91R
A. F. ACADEMY  LGT RAIN  50  39  66 N20       29.90S
SCHRIEVER AFB  NOT AVBL
ELLICOTT       TSTM     N/A N/A N/A W10       29.91R
FALCON         TSTM      44  34  66 N7        29.94S
FORT CARSON    TSTM      51  41  67 NW16      29.87S
LIMON          CLOUDY    63  45  51 E10       29.81R
MONUMENT HILL  TSTM      45  36  70 SE7       29.97F
TRINIDAD       FAIR      65  37  35 NW30G37   29.77F
$$

COZ042>045-048>051-090-091-262300-
...NORTHEAST COLORADO...

CITY           SKY/WX    TMP DP  RH WIND       PRES   REMARKS
GREELEY ARPT   CLOUDY    54  45  71 NW9       29.94R
AKRON          CLOUDY    67  41  38 E21G26    29.81F
BURLINGTON     FAIR      73  51  46 NE16      29.74F
WRAY           NOT AVBL
STERLING       PTSUNNY   70  45  40 NE13G20   29.81F THUNDER
HOLYOKE        NOT AVBL
FORT MORGAN    PTSUNNY   64  40  41 NE15G21   29.84F THUNDER
$$

COZ086-089-092>099-262300-
...SOUTHEAST COLORADO...

CITY           SKY/WX    TMP DP  RH WIND       PRES   REMARKS
PUEBLO         FAIR      63  36  36 VRB3      29.79F
LA JUNTA       TSTM      55  45  68 W20G32    29.73R
LAMAR          FAIR      77  49  37 SE24G35   29.62F
SPRINGFIELD      N/A     82  32  16 S20G30    29.67F
$$




USA.gov is the U.S. government's official web portal to all federal, state and local government web resources and services.